Location: ??
(35.4875°N, 139.3644°E)
Time: 14:25:38
(UTC+00:00)

Daily predictions for brighter satellites

Satellite Brightness Start Highest point End
(mag) Time Altitude Azimuth Time Altitude Azimuth Time Altitude Azimuth
X-37B 3.3 12:04:46 10° NW 12:06:30 17° N 12:06:30 17° N
Meteor 2-6 Rocket 4.4 12:10:22 54° ENE 12:10:22 54° ENE 12:15:00 10° NNE
Spot 2 Rocket 3.4 12:13:17 86° NW 12:13:17 86° NW 12:18:15 10° NNW
COSMOS 2406 4.3 12:08:32 10° N 12:13:24 32° ENE 12:13:24 32° ENE
Milstar 3 3.6 12:01:01 10° WSW 12:14:07 50° S 12:15:15 48° SSE
Cosmos 1666 Rocket 4.2 12:10:13 10° NNW 12:14:11 53° WNW 12:14:11 53° WNW
Cosmos 773 Rocket 4.3 12:11:39 10° N 12:16:23 57° NE 12:16:23 57° NE
Cosmos 2082 Rocket 4.0 12:13:34 10° NNE 12:17:14 17° NE 12:17:16 17° NE
DELTA 2 R/B (1) 3.5 12:12:35 10° WNW 12:18:06 83° N 12:18:06 83° N
Resurs 01 Rocket 3.6 12:21:55 20° WSW 12:22:50 21° W 12:26:14 10° NW
ERS-1 Rocket 3.3 12:30:56 63° N 12:30:56 63° N 12:35:08 10° NNW
SJ 16-02 3.3 12:33:41 23° NNE 12:33:41 23° NNE 12:35:25 10° NNE
SPOT 5 3.4 12:36:46 60° NNW 12:36:46 60° NNW 12:41:00 10° NNW
Cosmos 2278 Rocket 2.3 12:36:58 73° NNW 12:36:58 73° NNW 12:42:15 10° NNE
IUS R/B (1) 4.4 12:21:41 10° W 12:44:21 50° SSW 12:44:21 50° SSW
Terra 2.9 12:48:00 43° N 12:48:00 43° N 12:51:10 10° NNW
Cosmos 2184 Rocket 4.1 12:51:55 10° N 12:57:24 71° N 12:57:24 71° N
ATLAS 2AS CENTAUR R/B 4.2 12:56:06 10° N 13:01:52 24° NE 13:03:29 22° ENE
Cosmos 2074 Rocket 4.2 13:00:15 10° N 13:05:53 67° NW 13:05:53 67° NW
Nadezhda 1 Rocket 4.2 13:08:56 66° N 13:08:56 66° N 13:14:17 10° N
ATLAS 5 CENTAUR R/B 3.6 13:15:11 10° NW 13:19:33 35° W 13:19:33 35° W
Cosmos 1833 Rocket 3.8 13:23:34 10° NNW 13:27:13 39° NW 13:27:13 39° NW
CZ-4C R/B 3.4 13:44:04 10° NW 13:50:36 55° W 13:50:36 55° W
Cosmos 2082 Rocket 3.7 13:56:12 10° NNW 13:59:07 31° NW 13:59:07 31° NW
Cosmos 2369 Rocket 3.8 14:34:39 29° NNE 14:34:39 29° NNE 14:37:20 10° NNE
Cosmos 1943 Rocket 3.8 14:44:30 29° NNW 14:44:30 29° NNW 14:47:46 10° N
USA 215 3.9 14:45:50 50° NNE 14:45:50 50° NNE 14:51:52 10° NW
ATLAS 2AS CENTAUR R/B 3.6 14:46:22 10° NW 14:50:53 41° NW 14:50:53 41° NW
SL-16 R/B 4.3 15:24:04 22° E 15:25:28 24° ENE 15:30:19 10° NNE
CZ-2D R/B 4.0 15:24:33 10° NE 15:27:19 23° ENE 15:27:19 23° ENE
USA 281 4.0 15:28:47 42° ENE 15:29:17 43° ENE 15:35:24 10° N
ADEOS II 4.2 15:47:56 10° NE 15:50:53 19° E 15:50:53 19° E
Resurs 1-4 Rocket 3.4 15:49:24 10° NNE 15:52:46 36° NE 15:52:46 36° NE
BREEZE-M DEB (TANK) 4.1 16:08:56 37° ENE 16:08:56 37° ENE 16:15:00 10° NE
BREEZE-M DEB (TANK) 4.4 16:15:55 51° N 16:15:55 51° N 16:25:37 10° NE
Meteor 1-21 4.5 16:30:08 69° NNE 16:30:08 69° NNE 16:35:12 10° N
Cosmos 1153 Rocket 4.5 16:25:21 10° N 16:31:27 82° NNW 16:31:27 82° NNW
Lacrosse 5 2.7 16:34:18 48° N 16:34:18 48° N 16:38:08 10° NE
Cosmos 44 Rocket 4.1 16:32:23 10° NNW 16:36:21 49° N 16:36:21 49° N
Cosmos 1459 Rocket 4.3 16:34:49 10° N 16:41:00 60° E 16:42:11 51° SE
Cosmos 1975 Rocket 4.2 16:45:18 42° NE 16:45:18 42° NE 16:48:25 10° NNE
Cosmos 1697 Rocket 4.0 16:45:10 27° ESE 16:46:04 29° ESE 16:50:48 10° NE
Cosmos 2173 Rocket 4.0 16:43:57 10° N 16:50:08 74° E 16:51:08 61° SE
ADEOS Rocket 4.2 16:45:02 14° SE 16:50:57 50° ENE 16:58:16 10° N
ARGOS Delta rocket 4.2 16:48:41 10° N 16:52:22 58° NNE 16:52:22 58° NNE
NPP 4.0 16:49:06 10° N 16:53:43 52° NW 16:53:43 52° NW
Cosmos 1980 Rocket 4.4 16:53:37 13° SE 16:56:18 17° E 16:59:50 10° ENE
Cosmos 371 Rocket 3.5 16:59:18 65° ENE 16:59:18 65° ENE 17:03:45 10° NNE
Helios 1B rocket 4.4 16:56:43 10° N 16:58:32 22° NNW 16:58:32 22° NNW
Cosmos 1802 Rocket 4.0 16:58:37 10° N 17:04:46 76° E 17:06:34 48° SSE
CBERS-1 4.1 17:00:41 10° NNE 17:05:46 68° ESE 17:06:07 65° SE
Cosmos 2227 Rocket 3.8 17:02:52 10° N 17:07:55 33° ENE 17:12:56 10° SE
SL-16 R/B 2.8 17:09:09 49° W 17:09:09 49° W 17:14:43 10° NNW
CZ-2D R/B 3.2 17:04:20 10° N 17:08:38 32° WNW 17:08:38 32° WNW
Cosmos 2100 Rocket 3.9 17:03:42 10° N 17:09:58 72° W 17:10:46 64° SW
Cosmos 2297 Rocket 3.1 17:06:17 10° N 17:11:44 46° ENE 17:17:09 10° SE
Cosmos 2123 Rocket 3.9 17:12:21 57° S 17:13:44 87° E 17:19:56 10° N
USA 281 4.3 17:15:38 27° WNW 17:15:38 27° WNW 17:19:30 10° NW
Lacrosse 4 Rocket 3.2 17:13:10 24° ESE 17:13:53 25° ESE 17:17:35 10° NE
Cosmos 1626 3.3 17:14:29 40° ENE 17:14:29 40° ENE 17:17:35 10° NNE
Cosmos 1315 Rocket 3.7 17:12:10 10° N 17:14:53 42° N 17:14:53 42° N
NOSS 2-1 (C) 4.5 17:14:24 10° NW 17:20:04 68° WSW 17:28:04 10° SSE
IDEFIX/ARIANE 42P 2.6 17:17:34 10° NNE 17:22:50 74° ESE 17:24:06 52° S
CZ-4B R/B 4.3 17:18:40 10° NNE 17:23:27 46° E 17:25:24 31° SSE
Meteor 1-28 Rocket 3.7 17:24:42 53° N 17:24:42 53° N 17:27:36 10° N
Meteor 2-11 Rocket 4.3 17:19:06 10° N 17:25:15 78° W 17:27:15 45° S
In-Cosmos 22 4.5 17:27:18 48° W 17:27:39 48° WNW 17:33:05 10° N
CZ-2C R/B 2.4 17:31:28 28° E 17:31:28 28° E 17:33:09 10° E
Cosmos 1025 Rocket 2.8 17:30:11 84° W 17:30:13 85° W 17:34:35 10° N
ADEOS II 2.5 17:26:31 10° N 17:31:28 44° WNW 17:31:49 43° W
Resurs 1-4 Rocket 3.8 17:30:24 10° NNW 17:33:51 18° WNW 17:33:51 18° WNW
MSX 4.0 17:29:08 10° NNE 17:34:55 69° ESE 17:37:41 32° S
Cosmos 2251 Rocket 3.4 17:32:49 10° NNW 17:38:04 86° WSW 17:41:01 27° SSE
Cosmos 1864 Rocket 4.4 17:33:31 10° N 17:39:53 77° W 17:43:20 29° S
Milstar 3 4.4 17:42:45 16° S 17:42:45 16° S 17:45:19 10° SSE
Cosmos 1371 Rocket 4.5 17:38:13 31° SSE 17:40:32 57° ESE 17:45:39 10° NNE
IRS-1D 4.1 17:36:43 10° N 17:41:45 43° WNW 17:42:35 40° W
GP-B 3.0 17:38:37 10° N 17:43:04 82° W 17:43:59 56° SSW
Cosmos 1544 Rocket 3.4 17:40:34 10° N 17:44:58 87° W 17:46:18 45° S
COSMOS 2455 2.7 17:39:51 10° NNW 17:45:53 81° WSW 17:51:52 10° SSE
Cosmos 2219 3.2 17:41:24 10° NNW 17:47:08 83° ENE 17:52:52 10° SSE
Cosmos 1455 Rocket 3.7 17:51:48 10° NNW 17:55:25 35° W 17:55:25 35° W
Cosmos 1536 Rocket 3.4 17:55:57 43° SSW 17:57:18 76° W 18:01:43 10° N
OAO 2 Rocket 4.3 17:56:01 30° S 17:57:29 36° SSE 18:02:20 10° E
COSMOS 2441 4.3 17:53:02 10° N 17:57:58 84° WNW 18:00:21 31° SSW
IRS-1C 4.3 17:59:52 10° N 18:05:05 57° WNW 18:07:35 30° SW
SL-08 R/B 3.4 18:01:42 10° SSE 18:06:28 80° ENE 18:11:10 10° N
Tianhe-1 2.3 18:05:46 19° NW 18:07:40 41° NNE 18:10:40 10° E
Cosmos 2360 4.3 18:05:10 31° SW 18:07:56 63° WNW 18:13:38 10° NNE
Cosmos 1725 Rocket 4.3 18:03:05 10° NNW 18:08:58 44° W 18:12:21 24° SSW
OAO 3 Rocket 3.5 18:07:51 34° WSW 18:09:23 45° SSW 18:14:04 10° SE
Cosmos 1953 3.5 18:07:36 10° NW 18:10:25 25° WNW 18:10:25 25° WNW
Timation 2 Rocket 3.8 18:06:11 10° NNW 18:12:06 65° WSW 18:18:05 10° S
Lacrosse 5 4.2 18:14:19 10° WNW 18:16:56 14° NNW 18:19:33 10° N
TSX-5 3.6 18:14:57 10° NNW 18:18:30 83° WSW 18:22:56 10° SSE
Cosmos 2228 4.3 18:14:42 10° N 18:18:45 41° E 18:22:48 10° SSE
ARIANE 5 R/B 2.8 18:14:39 10° N 18:19:39 52° WNW 18:22:36 23° SW
USA 129 2.3 18:20:14 23° SSE 18:21:28 56° ENE 18:23:29 10° N
Cosmos 1140 Rocket 3.6 18:17:11 10° NNW 18:22:25 81° ENE 18:27:38 10° SSE
Cosmos 2285 Rocket 4.0 18:19:57 19° SSW 18:24:38 69° WNW 18:31:04 10° NNE
Cosmos 2233 Rocket 4.1 18:19:05 10° NNW 18:25:04 52° W 18:30:59 10° SSW
Cosmos 1190 Rocket 4.2 18:21:03 10° NNW 18:26:16 74° ENE 18:31:29 10° SSE
Cosmos 1697 Rocket 3.5 18:26:55 21° WSW 18:29:52 33° WNW 18:34:55 10° N
Cosmos 1420 Rocket 4.0 18:25:40 14° SSW 18:30:06 89° W 18:35:20 10° NNE
Cosmos 1300 2.7 18:27:51 10° NNW 18:31:37 60° W 18:35:21 10° S
CZ-2C R/B 2.8 18:32:05 10° N 18:36:06 85° W 18:40:07 10° SSW
ALOS 3.1 18:32:01 10° NNE 18:36:34 50° E 18:41:04 10° S
ADEOS Rocket 4.2 18:31:59 16° SW 18:36:34 29° W 18:43:00 10° NW
APEX 3.9 18:34:39 10° NNW 18:39:17 85° WSW 18:45:05 10° SSE
Cosmos 1980 Rocket 2.4 18:35:24 17° SW 18:39:45 55° WNW 18:45:20 10° NNE
CENTAUR R/B 4.5 18:38:10 10° SSE 18:42:20 22° ESE 18:46:56 10° ENE
USA 234 3.6 18:39:10 10° NE 18:45:40 63° SE 18:52:07 10° SSW
Cosmos 676 Rocket 4.4 18:43:28 10° NNW 18:48:43 70° ENE 18:53:58 10° SSE
Cosmos 2278 4.0 18:45:38 13° SW 18:50:33 52° WNW 18:56:07 10° N
Meteor 2-10 Rocket 3.8 18:45:05 10° N 18:50:52 84° E 18:56:25 10° S
Cosmos 1455 4.0 18:47:51 10° NNE 18:51:23 35° E 18:54:55 10° SSE
Cosmos 2227 Rocket 3.0 18:46:59 10° NW 18:51:49 30° WSW 18:56:37 10° SSW
Lacrosse 4 Rocket 2.8 18:49:29 14° WSW 18:52:27 27° WNW 18:56:15 10° N
SL-24 R/B 4.1 18:49:47 10° SSE 18:53:23 68° ENE 18:57:09 10° N
Cosmos 407 Rocket 3.9 18:49:06 10° NNW 18:54:07 43° WSW 18:59:07 10° S
Cosmos 2297 Rocket 3.4 18:51:17 10° NW 18:55:21 20° W 18:59:24 10° SSW
CZ-2C R/B 2.8 18:52:57 10° N 18:57:54 52° WNW 19:02:54 10° SSW
Cosmos 1892 Rocket 3.5 18:56:12 10° S 19:00:33 78° W 19:04:53 10° N
PSLV R/B 3.4 18:57:08 10° N 19:01:19 75° WNW 19:05:29 10° SSW
Cosmos 2082 3.9 18:58:09 10° NNW 19:03:37 49° WSW 19:09:04 10° S
SL-16 R/B 2.7 19:01:43 10° S 19:07:19 65° ESE 19:12:55 10° NNE
Cosmos 1452 Rocket 3.5 19:03:10 10° SSW 19:08:26 75° WNW 19:13:43 10° NNE
CZ-2C R/B 0.8 19:06:11 10° W 19:09:19 54° SSW 19:12:34 10° ESE
Cosmos 2058 Rocket 3.5 19:09:50 10° N 19:14:20 72° E 19:18:49 10° SSE
Cosmos 1340 4.4 19:12:10 10° WSW 19:14:31 16° WNW 19:16:52 10° NW
Atlas Centaur 2 4.1 19:10:57 10° SSW 19:14:54 17° SSE 19:18:21 10° ESE
ATLAS 2A CENTAUR R/B 3.8 19:10:56 10° SW 19:15:33 35° SSE 19:30:40 10° E
Cosmos 1954 Rocket 4.1 19:14:28 10° NNW 19:19:38 57° WSW 19:24:48 10° S
FENGYUN 3A 3.9 19:15:32 10° N 19:20:45 53° WNW 19:25:57 10° SSW
